[[{"header":{"parameterUnit":"m.s-1","parameterCategory":2,"la1":30.2991,"la2":30.254,"lo1":-89.0895,"lo2":-89.0444,"dy":0.0017,"dx":0.0017,"nx":28,"ny":28,"refTime":"2023-10-08T09:00:00:Z","depth":"0","parameterNumber":2,"parameterNumberName":"U-component_of_CURRENTS"},"data":[0,0,0,0,0,0,0,0,0,0,0,0,0,0,0,0,0,0,0,0,0,0,0,0,0,0,0,0,0,0,0,0,0,0,0,0,0,0,0,0,0,0,0,0,0,0,0,0,0,0,0,0,0,0,0,0,0,0,-0.1471,-0.1473,0,-0.1785,-0.179,-0.1795,-0.197,-0.1969,-0.1968,-0.1967,-0.1932,-0.1932,-0.1932,0,0,0,0,0,0,0,0,0,0,0,0,0,-0.1312,-0.1313,-0.1471,-0.1474,-0.1476,-0.1784,-0.179,-0.1796,-0.197,-0.1969,-0.1968,-0.1967,-0.1932,-0.1932,-0.1932,0,0,0,0,0,0,0,0,0,0,0,0,0,-0.1493,-0.1314,-0.1471,-0.1589,-0.1601,-0.1783,-0.179,-0.1797,-0.1971,-0.1969,-0.1968,-0.1967,-0.1932,-0.1932,-0.1932,-0.1959,0,0,-0.1932,-0.1932,0,0,0,0,0,0,0,0,-0.1482,-0.15,-0.1569,-0.1581,-0.1595,-0.1823,-0.1721,-0.1828,-0.1971,-0.1847,-0.1967,-0.1966,-0.1854,-0.186,-0.195,-0.1957,-0.1955,-0.1932,-0.1932,-0.1932,-0.1932,0,0,0,0,0,0,0,-0.1469,-0.1489,-0.1612,-0.1571,-0.1587,-0.1723,-0.1747,-0.1746,-0.186,-0.1858,-0.1867,-0.1878,-0.1861,-0.195,-0.1949,-0.1955,-0.1932,-0.1932,-0.1931,-0.1931,-0.2026,-0.2028,0,0,0,0,0,0,-0.1385,-0.1476,-0.1601,-0.1619,-0.1516,-0.1725,-0.1752,-0.1764,-0.1868,-0.1881,-0.1878,-0.1884,-0.1951,-0.1949,-0.1947,-0.202,-0.1932,-0.1931,-0.1931,-0.2023,-0.2026,-0.2029,0,0,0,0,0,0,-0.138,-0.1393,-0.1588,-0.1542,-0.1574,-0.1725,-0.174,-0.1771,-0.185,-0.1885,-0.1894,-0.1921,-0.195,-0.1948,-0.1984,-0.2016,-0.1931,-0.1931,-0.202,-0.2024,-0.2028,-0.2137,0,0,0,0,0,0,-0.1375,-0.139,-0.1394,-0.1536,-0.1573,-0.1688,-0.1741,-0.1777,-0.185,-0.1862,-0.1923,-0.1921,-0.1949,-0.1985,-0.1984,-0.2014,-0.1931,-0.2017,-0.2022,-0.2027,-0.213,-0.2144,-0.2156,0,0,0,0,0,-0.1368,-0.1383,-0.1393,-0.1408,-0.1565,-0.1687,-0.1722,-0.1836,-0.1852,-0.1901,-0.1962,-0.1919,-0.2014,-0.1987,-0.1985,-0.2017,-0.2015,-0.2021,-0.2026,-0.2124,-0.2141,-0.2156,0,0,0,0,0,0,-0.1338,-0.1405,-0.1418,-0.1457,-0.1547,-0.171,-0.1761,-0.1825,-0.1926,-0.1907,-0.1956,-0.1961,-0.2007,-0.1994,-0.1963,-0.206,-0.2004,-0.2009,-0.2079,-0.2095,-0.2107,-0.2091,-0.1931,0,0,0,0,0,-0.1316,-0.1335,-0.1426,-0.1458,-0.1486,-0.1615,-0.168,-0.1738,-0.1831,-0.1879,-0.1946,-0.1988,-0.2038,-0.2047,-0.2085,-0.2125,-0.2102,-0.2143,-0.2156,-0.2167,-0.2155,-0.2159,-0.217,-0.2048,-0.2048,-0.2048,0,0,-0.1311,-0.1349,-0.1362,-0.145,-0.1526,-0.1587,-0.1657,-0.1724,-0.1813,-0.1841,-0.1984,-0.2024,-0.2059,-0.2142,-0.2156,-0.2127,-0.2201,-0.2175,-0.2184,-0.2165,-0.2166,-0.2178,-0.2188,-0.2052,-0.2052,-0.2051,0,0,-0.1318,-0.1335,-0.1355,-0.1411,-0.1481,-0.1559,-0.156,-0.1708,-0.1813,-0.1925,-0.1985,-0.2057,-0.2133,-0.2211,-0.224,-0.2331,-0.2269,-0.2324,-0.2375,-0.2381,-0.239,-0.2398,-0.2426,-0.2435,-0.2331,-0.2331,-0.2331,0,-0.1308,-0.1341,-0.1388,-0.142,-0.1461,-0.1529,-0.1569,-0.1695,-0.1856,-0.1957,-0.1955,-0.2155,-0.2178,-0.23,-0.2357,-0.2359,-0.2347,-0.2316,-0.2396,-0.2403,-0.2409,-0.2435,-0.2444,-0.2337,-0.2336,-0.2336,-0.2335,0,-0.1334,-0.1356,-0.137,-0.1419,-0.1476,-0.1514,-0.1633,-0.1739,-0.1836,-0.1977,-0.2139,-0.2224,-0.2338,-0.2369,-0.2392,-0.2472,-0.2448,-0.2411,-0.2351,-0.2427,-0.2451,-0.2458,-0.2346,-0.2343,-0.2342,-0.234,0,0,-0.1319,-0.1378,-0.1379,-0.1396,-0.1465,-0.1515,-0.1641,-0.1813,-0.192,-0.2084,-0.225,-0.2388,-0.2443,-0.2479,-0.2523,-0.2542,-0.2605,-0.2494,-0.2491,-0.2512,-0.2625,-0.2441,-0.2431,-0.2566,-0.2567,-0.2568,-0.264,0,-0.1329,-0.1372,-0.1407,-0.1451,-0.1478,-0.1561,-0.1671,-0.1821,-0.1992,-0.2177,-0.2314,-0.2451,-0.2485,-0.2521,-0.2565,-0.2583,-0.262,-0.2589,-0.2554,-0.2554,-0.2372,-0.2431,-0.2204,-0.2231,-0.2646,-0.2647,-0.2648,0,-0.1341,-0.1367,-0.1407,-0.1462,-0.1479,-0.1513,-0.1678,-0.1791,-0.2049,-0.2182,-0.2359,-0.2477,-0.2605,-0.2571,-0.2665,-0.2635,-0.2641,-0.2644,-0.2645,-0.2426,-0.2379,-0.2214,-0.2227,-0.2214,-0.2658,-0.2657,-0.2656,0,-0.131,-0.1365,-0.1393,-0.1409,-0.1487,-0.1535,-0.1584,-0.18,-0.1907,-0.218,-0.2262,-0.2475,-0.2526,-0.2586,-0.2651,-0.2646,-0.2698,-0.2691,-0.2551,-0.2541,-0.2313,-0.2278,-0.2286,-0.2729,-0.2729,-0.2729,-0.2729,0,-0.1306,-0.1322,-0.1371,-0.1381,-0.1415,-0.1472,-0.156,-0.1691,-0.1846,-0.1945,-0.2227,-0.2306,-0.2511,-0.2603,-0.2656,-0.2618,-0.2711,-0.2558,-0.2534,-0.2349,-0.2317,-0.2262,-0.2298,-0.2731,-0.2731,-0.273,-0.273,0,-0.1265,-0.1302,-0.1329,-0.1386,-0.1399,-0.1415,-0.1468,-0.1545,-0.1691,-0.1814,-0.1875,-0.2162,-0.2275,-0.2473,-0.2571,-0.2566,-0.2505,-0.2545,-0.2329,-0.2274,-0.207,-0.212,-0.208,-0.2028,-0.2395,-0.2391,-0.2387,0,-0.1249,-0.1258,-0.1306,-0.1309,-0.1326,-0.1349,-0.1367,-0.1472,-0.1538,-0.1695,-0.1734,-0.1917,-0.2017,-0.215,-0.2198,-0.227,-0.2352,-0.2105,-0.2037,-0.2016,-0.2059,-0.2112,-0.2078,-0.1828,-0.182,-0.1814,-0.1808,0,-0.1206,-0.1224,-0.1242,-0.1248,-0.1253,-0.1267,-0.1286,-0.1296,-0.1398,-0.1462,-0.1516,-0.1574,-0.1689,-0.1679,-0.1791,-0.1813,-0.1982,-0.1964,-0.2,-0.1645,-0.1647,-0.1597,-0.1871,-0.175,-0.1756,-0.176,-0.1764,-0.1766,-0.116,-0.1159,-0.1174,-0.1174,-0.1182,-0.1173,-0.1153,-0.1174,-0.1182,-0.1224,-0.1269,-0.1293,-0.1293,-0.1387,-0.1401,-0.1355,-0.1517,-0.1336,-0.142,-0.1494,-0.1355,-0.1491,-0.1289,-0.1292,-0.1294,-0.1297,-0.1299,0,-0.109,-0.1091,-0.1093,-0.1088,-0.1061,-0.1092,-0.1088,-0.1053,-0.1018,-0.1033,-0.1014,-0.0974,-0.0898,-0.0971,-0.0908,-0.0848,-0.0872,-0.0901,-0.0958,-0.0967,-0.1113,-0.0991,-0.0641,-0.0641,-0.0641,-0.0641,-0.0641,-0.0641,-0.1049,-0.1022,-0.1025,-0.096,-0.0952,-0.0888,-0.0867,-0.0837,-0.083,-0.0778,-0.0763,-0.0778,-0.0804,-0.0807,-0.0713,-0.0666,-0.0736,-0.064,-0.0815,-0.0941,-0.0991,-0.1038,-0.0932,-0.0575,-0.0576,-0.0554,-0.0554,-0.0554]},{"header":{"parameterUnit":"m.s-1","parameterCategory":2,"la1":30.2991,"la2":30.254,"lo1":-89.0895,"lo2":-89.0444,"dy":0.0017,"dx":0.0017,"nx":28,"ny":28,"refTime":"2023-10-08T09:00:00:Z","depth":"0","parameterNumber":3,"parameterNumberName":"V-component_of_CURRENTS"},"data":[0,0,0,0,0,0,0,0,0,0,0,0,0,0,0,0,0,0,0,0,0,0,0,0,0,0,0,0,0,0,0,0,0,0,0,0,0,0,0,0,0,0,0,0,0,0,0,0,0,0,0,0,0,0,0,0,0,0,-0.0096,-0.0095,0,-0.0112,-0.0113,-0.0114,-0.0205,-0.0206,-0.0207,-0.0207,-0.0309,-0.0311,-0.0313,0,0,0,0,0,0,0,0,0,0,0,0,0,-0.0138,-0.0138,-0.0096,-0.0095,-0.0093,-0.0112,-0.0113,-0.0115,-0.0205,-0.0206,-0.0207,-0.0208,-0.0308,-0.0311,-0.0313,0,0,0,0,0,0,0,0,0,0,0,0,0,-0.0147,-0.0138,-0.0096,-0.013,-0.0132,-0.0111,-0.0113,-0.0115,-0.0205,-0.0206,-0.0207,-0.0208,-0.0308,-0.031,-0.0313,-0.0306,0,0,-0.0322,-0.0323,0,0,0,0,0,0,0,0,-0.0146,-0.0147,-0.0126,-0.0127,-0.0129,-0.0145,-0.0164,-0.0178,-0.0204,-0.0192,-0.0207,-0.0209,-0.0252,-0.0259,-0.0279,-0.0311,-0.0315,-0.0322,-0.0324,-0.0325,-0.0326,0,0,0,0,0,0,0,-0.0146,-0.0147,-0.0117,-0.0124,-0.0126,-0.0141,-0.0146,-0.0168,-0.0228,-0.0194,-0.0197,-0.0175,-0.0255,-0.0276,-0.0282,-0.0317,-0.0322,-0.0325,-0.0327,-0.0328,-0.0426,-0.0427,0,0,0,0,0,0,-0.0113,-0.0146,-0.0116,-0.0116,-0.0125,-0.0138,-0.0144,-0.0151,-0.0226,-0.0233,-0.0173,-0.0178,-0.027,-0.0278,-0.0286,-0.0386,-0.0325,-0.0328,-0.033,-0.0425,-0.0426,-0.0427,0,0,0,0,0,0,-0.0115,-0.0112,-0.0115,-0.0118,-0.0118,-0.0135,-0.0142,-0.015,-0.0168,-0.0207,-0.022,-0.0181,-0.0272,-0.0282,-0.0351,-0.0386,-0.0329,-0.0332,-0.0424,-0.0425,-0.0427,-0.0518,0,0,0,0,0,0,-0.0116,-0.0113,-0.0116,-0.0117,-0.0116,-0.0111,-0.014,-0.0149,-0.0145,-0.0153,-0.0217,-0.0228,-0.0274,-0.0346,-0.0353,-0.0389,-0.0334,-0.0423,-0.0425,-0.0426,-0.0514,-0.0522,-0.0529,0,0,0,0,0,-0.0118,-0.0129,-0.0117,-0.0113,-0.0118,-0.0109,-0.0113,-0.0137,-0.0144,-0.0159,-0.0227,-0.0226,-0.036,-0.0351,-0.0358,-0.0396,-0.0422,-0.0424,-0.0426,-0.051,-0.0521,-0.0529,0,0,0,0,0,0,-0.0159,-0.0137,-0.0126,-0.0131,-0.0113,-0.0119,-0.0131,-0.0125,-0.0186,-0.0205,-0.025,-0.0268,-0.034,-0.0341,-0.0328,-0.0423,-0.0384,-0.0388,-0.0445,-0.0455,-0.0463,-0.0467,-0.0337,0,0,0,0,0,-0.0157,-0.0161,-0.013,-0.0133,-0.0125,-0.0119,-0.0116,-0.0124,-0.016,-0.0187,-0.0227,-0.028,-0.035,-0.0382,-0.0428,-0.0478,-0.0464,-0.0499,-0.0507,-0.0513,-0.0519,-0.0544,-0.0555,-0.0433,-0.0433,-0.0433,0,0,-0.0167,-0.0155,-0.0155,-0.0139,-0.0137,-0.014,-0.0128,-0.0126,-0.0156,-0.0187,-0.0262,-0.0306,-0.0367,-0.0451,-0.0479,-0.0461,-0.0537,-0.0516,-0.0522,-0.0524,-0.0547,-0.0559,-0.057,-0.0435,-0.0435,-0.0434,0,0,-0.0195,-0.0183,-0.0196,-0.0182,-0.0157,-0.0154,-0.0143,-0.0142,-0.018,-0.0229,-0.0284,-0.0357,-0.0415,-0.0502,-0.0547,-0.061,-0.0576,-0.0597,-0.0651,-0.0676,-0.0687,-0.0696,-0.0681,-0.0688,-0.0604,-0.0605,-0.0605,0,-0.0206,-0.0219,-0.0196,-0.0203,-0.0194,-0.0157,-0.0168,-0.0198,-0.0225,-0.0277,-0.0262,-0.0408,-0.0453,-0.0598,-0.0633,-0.0634,-0.0615,-0.0621,-0.0689,-0.0697,-0.0705,-0.0688,-0.0695,-0.0609,-0.0609,-0.0608,-0.0608,0,-0.0241,-0.0248,-0.0254,-0.0254,-0.0246,-0.0246,-0.025,-0.0272,-0.0286,-0.0329,-0.0443,-0.0514,-0.0603,-0.0626,-0.0659,-0.0752,-0.0707,-0.0696,-0.067,-0.0724,-0.0701,-0.0706,-0.0616,-0.0614,-0.0613,-0.0612,0,0,-0.0277,-0.028,-0.0281,-0.0288,-0.0271,-0.027,-0.0318,-0.0367,-0.042,-0.0469,-0.0559,-0.069,-0.0713,-0.0762,-0.0802,-0.0832,-0.0877,-0.0786,-0.0785,-0.0779,-0.0893,-0.0739,-0.073,-0.087,-0.0872,-0.0874,-0.085,0,-0.0309,-0.0339,-0.0329,-0.0352,-0.0363,-0.0348,-0.0389,-0.0436,-0.0488,-0.0567,-0.0667,-0.076,-0.0772,-0.0809,-0.0855,-0.0874,-0.0896,-0.0882,-0.0834,-0.0832,-0.0697,-0.0734,-0.0645,-0.0606,-0.0855,-0.0856,-0.0857,0,-0.0348,-0.036,-0.0394,-0.0404,-0.0407,-0.0415,-0.0467,-0.0499,-0.0611,-0.0657,-0.0768,-0.0824,-0.0934,-0.0894,-0.0966,-0.0947,-0.0927,-0.0921,-0.092,-0.0749,-0.0689,-0.0594,-0.0606,-0.0507,-0.0865,-0.0864,-0.0864,0,-0.0388,-0.0406,-0.0436,-0.0437,-0.0444,-0.0466,-0.0467,-0.0543,-0.059,-0.0712,-0.0752,-0.089,-0.0925,-0.0957,-0.0948,-0.0956,-0.0963,-0.0977,-0.0824,-0.0812,-0.0713,-0.0687,-0.0632,-0.1005,-0.1005,-0.1005,-0.1005,0,-0.0429,-0.045,-0.0456,-0.0471,-0.0506,-0.049,-0.0546,-0.0577,-0.0637,-0.0702,-0.0796,-0.0847,-0.0931,-0.0951,-0.0955,-0.0884,-0.0969,-0.0832,-0.0802,-0.0736,-0.0714,-0.0601,-0.0568,-0.1004,-0.1004,-0.1004,-0.1004,0,-0.0472,-0.0476,-0.051,-0.0523,-0.0528,-0.0549,-0.0557,-0.0602,-0.0633,-0.0706,-0.0735,-0.0817,-0.0816,-0.0858,-0.0879,-0.0851,-0.073,-0.0771,-0.0659,-0.0615,-0.0373,-0.0347,-0.023,-0.0161,-0.0623,-0.0619,-0.0616,0,-0.0498,-0.052,-0.055,-0.0569,-0.0575,-0.0594,-0.0609,-0.0617,-0.0646,-0.0677,-0.0708,-0.072,-0.0724,-0.0676,-0.0628,-0.0582,-0.0554,-0.0457,-0.047,-0.0335,-0.0288,-0.0274,-0.0226,-0.0382,-0.0377,-0.0373,-0.037,0,-0.054,-0.0553,-0.0579,-0.0617,-0.0638,-0.066,-0.0664,-0.0676,-0.0672,-0.0684,-0.0661,-0.0646,-0.0559,-0.0449,-0.035,-0.033,-0.0328,-0.0367,-0.029,-0.0133,-0.0057,0.0018,-0.0398,-0.0334,-0.0338,-0.0341,-0.0343,-0.0344,-0.0567,-0.0598,-0.0629,-0.0664,-0.0689,-0.0706,-0.071,-0.0693,-0.0682,-0.0651,-0.0609,-0.0529,-0.0329,-0.0167,-0.0108,0.0078,-0.0014,0.0097,0.0104,0.0096,0.0209,-0.0083,0.0063,0.0062,0.0061,0.006,0.0059,0,-0.0593,-0.0625,-0.0666,-0.0704,-0.0729,-0.0731,-0.0732,-0.0708,-0.0664,-0.0595,-0.0517,-0.0274,-0.0044,0.0122,0.0386,0.0505,0.0491,0.0538,0.0528,0.0541,0.0227,0.0286,0.0565,0.0565,0.0565,0.0564,0.0564,0.0564,-0.0607,-0.0652,-0.0675,-0.0722,-0.0743,-0.0749,-0.0741,-0.0688,-0.0618,-0.0457,-0.0314,-0.0214,0.0059,0.0533,0.0804,0.0826,0.0893,0.0928,0.0928,0.067,0.0626,0.0585,0.0648,0.0997,0.0998,0.1246,0.1248,0.125]}],[{"header":{"parameterUnit":"m.s-1","parameterCategory":2,"la1":30.2991,"la2":30.254,"lo1":-89.0895,"lo2":-89.0444,"dy":0.0017,"dx":0.0017,"nx":28,"ny":28,"refTime":"2023-10-08T09:00:00:Z","depth":"2","parameterNumber":2,"parameterNumberName":"U-component_of_CURRENTS"},"data":[0,0,0,0,0,0,0,0,0,0,0,0,0,0,0,0,0,0,0,0,0,0,0,0,0,0,0,0,0,0,0,0,0,0,0,0,0,0,0,0,0,0,0,0,0,0,0,0,0,0,0,0,0,0,0,0,0,0,-0.1344,-0.1345,0,-0.1373,-0.1373,-0.1373,-0.135,-0.135,-0.135,-0.135,-0.124,-0.1237,-0.1234,0,0,0,0,0,0,0,0,0,0,0,0,0,-0.1245,-0.1247,-0.1344,-0.1346,-0.1347,-0.1374,-0.1373,-0.1373,-0.135,-0.135,-0.135,-0.135,-0.1241,-0.1238,-0.1234,0,0,0,0,0,0,0,0,0,0,0,0,0,-0.1275,-0.1247,-0.1344,-0.1345,-0.1346,-0.1374,-0.1373,-0.1372,-0.135,-0.135,-0.135,-0.135,-0.1242,-0.1238,-0.1234,-0.1213,0,0,-0.1221,-0.1219,0,0,0,0,0,0,0,0,-0.1273,-0.1277,-0.1344,-0.1345,-0.1347,-0.1366,-0.1298,-0.1315,-0.1351,-0.134,-0.135,-0.135,-0.1275,-0.1268,-0.1264,-0.1208,-0.1203,-0.1221,-0.1218,-0.1216,-0.1215,0,0,0,0,0,0,0,-0.1271,-0.1276,-0.1347,-0.1345,-0.1347,-0.1337,-0.134,-0.1301,-0.1299,-0.1341,-0.1341,-0.1358,-0.1273,-0.1268,-0.1261,-0.1201,-0.1221,-0.1217,-0.1214,-0.1213,-0.1114,-0.1114,0,0,0,0,0,0,-0.1287,-0.1274,-0.1346,-0.1349,-0.1318,-0.1339,-0.1342,-0.1353,-0.1302,-0.1298,-0.1359,-0.1358,-0.1275,-0.1266,-0.1257,-0.1227,-0.1216,-0.1212,-0.121,-0.1114,-0.1114,-0.1114,0,0,0,0,0,0,-0.1284,-0.1293,-0.1345,-0.1319,-0.1326,-0.1342,-0.1353,-0.1354,-0.1363,-0.1319,-0.131,-0.137,-0.1274,-0.1262,-0.1203,-0.1222,-0.1211,-0.1207,-0.1114,-0.1114,-0.1114,-0.1168,0,0,0,0,0,0,-0.1281,-0.1291,-0.1296,-0.132,-0.1329,-0.1373,-0.1355,-0.1355,-0.1377,-0.1376,-0.1326,-0.1315,-0.1273,-0.1209,-0.1199,-0.1216,-0.1204,-0.1114,-0.1114,-0.1114,-0.1167,-0.117,-0.1173,0,0,0,0,0,-0.1277,-0.1291,-0.1296,-0.1305,-0.1338,-0.1375,-0.1377,-0.1381,-0.1378,-0.1386,-0.1328,-0.1317,-0.1202,-0.1205,-0.1193,-0.121,-0.1114,-0.1114,-0.1114,-0.1165,-0.1169,-0.1173,0,0,0,0,0,0,-0.1251,-0.1292,-0.1297,-0.1323,-0.1353,-0.1374,-0.1382,-0.1394,-0.136,-0.1343,-0.1299,-0.1283,-0.1239,-0.1213,-0.1219,-0.118,-0.1164,-0.1161,-0.1207,-0.1211,-0.1214,-0.1246,-0.12,0,0,0,0,0,-0.1251,-0.1268,-0.131,-0.1329,-0.1345,-0.1366,-0.138,-0.1387,-0.1371,-0.1359,-0.1335,-0.1286,-0.1229,-0.121,-0.116,-0.1137,-0.1165,-0.1145,-0.1148,-0.1151,-0.1168,-0.1225,-0.1236,-0.1113,-0.1113,-0.1113,0,0,-0.1248,-0.1272,-0.1282,-0.1325,-0.134,-0.1364,-0.1371,-0.1397,-0.1399,-0.1348,-0.133,-0.129,-0.122,-0.1183,-0.1166,-0.1166,-0.12,-0.115,-0.1153,-0.1169,-0.1226,-0.1239,-0.125,-0.1113,-0.1113,-0.1113,0,0,-0.1254,-0.127,-0.1288,-0.1313,-0.1352,-0.1365,-0.1381,-0.1414,-0.1405,-0.1389,-0.134,-0.1309,-0.1255,-0.121,-0.1174,-0.1167,-0.1206,-0.1168,-0.1221,-0.1276,-0.1288,-0.1298,-0.1359,-0.1375,-0.1182,-0.1182,-0.1182,0,-0.1247,-0.1276,-0.13,-0.1325,-0.1348,-0.1371,-0.1397,-0.1389,-0.1398,-0.1394,-0.1387,-0.1324,-0.1264,-0.1215,-0.121,-0.1176,-0.1229,-0.1212,-0.1284,-0.1295,-0.1306,-0.1366,-0.1382,-0.1185,-0.1184,-0.1184,-0.1184,0,-0.127,-0.1292,-0.1305,-0.134,-0.1365,-0.139,-0.1403,-0.1418,-0.1422,-0.1425,-0.1403,-0.1339,-0.1314,-0.1293,-0.1241,-0.1278,-0.1301,-0.1276,-0.1285,-0.1322,-0.1382,-0.1398,-0.1188,-0.1187,-0.1187,-0.1186,0,0,-0.1255,-0.1312,-0.1313,-0.1331,-0.1375,-0.1397,-0.1404,-0.1426,-0.1446,-0.1441,-0.1467,-0.1376,-0.1388,-0.1349,-0.1308,-0.1353,-0.1452,-0.1363,-0.1365,-0.1443,-0.1612,-0.138,-0.1376,-0.1468,-0.1471,-0.1473,-0.163,0,-0.1265,-0.1307,-0.1337,-0.137,-0.1394,-0.1422,-0.1433,-0.1448,-0.1467,-0.1496,-0.1448,-0.1443,-0.1392,-0.14,-0.1432,-0.1429,-0.1499,-0.1413,-0.1548,-0.1552,-0.1356,-0.1387,-0.1285,-0.1394,-0.1646,-0.1649,-0.1651,0,-0.1275,-0.1302,-0.1339,-0.1389,-0.1403,-0.1423,-0.1472,-0.1487,-0.1515,-0.1538,-0.1554,-0.1541,-0.1547,-0.1526,-0.1592,-0.1556,-0.1603,-0.1623,-0.1629,-0.1406,-0.1348,-0.1393,-0.1414,-0.1678,-0.1676,-0.1674,-0.1672,0,-0.1245,-0.1301,-0.1327,-0.1343,-0.1403,-0.1419,-0.1448,-0.1494,-0.1503,-0.1578,-0.1617,-0.1638,-0.1649,-0.1709,-0.169,-0.169,-0.1787,-0.1784,-0.1635,-0.1621,-0.1549,-0.152,-0.1894,-0.1893,-0.1893,-0.1893,-0.1892,0,-0.124,-0.1259,-0.1311,-0.1321,-0.1351,-0.14,-0.1437,-0.1488,-0.154,-0.1549,-0.1629,-0.1628,-0.171,-0.1736,-0.1753,-0.17,-0.1835,-0.1652,-0.1639,-0.1558,-0.1529,-0.1778,-0.1763,-0.1898,-0.1897,-0.1896,-0.1895,0,-0.12,-0.1238,-0.1267,-0.1322,-0.1335,-0.1351,-0.1404,-0.1429,-0.1514,-0.154,-0.1565,-0.1646,-0.1674,-0.1722,-0.181,-0.1742,-0.1741,-0.1709,-0.1588,-0.1552,-0.1552,-0.1537,-0.16,-0.1592,-0.1587,-0.1582,-0.1577,0,-0.1184,-0.1194,-0.1245,-0.1252,-0.1272,-0.1301,-0.1316,-0.1396,-0.1421,-0.1496,-0.1492,-0.1558,-0.1533,-0.1552,-0.1499,-0.1506,-0.1613,-0.1406,-0.1337,-0.1537,-0.1521,-0.1515,-0.1509,-0.1316,-0.131,-0.1305,-0.1301,0,-0.1144,-0.1162,-0.1181,-0.1194,-0.1206,-0.1227,-0.1253,-0.1262,-0.1338,-0.137,-0.1369,-0.1357,-0.1343,-0.1253,-0.1229,-0.1208,-0.1377,-0.1294,-0.1597,-0.1329,-0.126,-0.1245,-0.1252,-0.1257,-0.1262,-0.1265,-0.1267,-0.1269,-0.1102,-0.1101,-0.1118,-0.1124,-0.1139,-0.1137,-0.1122,-0.1149,-0.1155,-0.1165,-0.1187,-0.1146,-0.115,-0.1008,-0.0948,-0.0918,-0.1015,-0.1024,-0.1046,-0.1072,-0.0934,-0.0849,-0.0749,-0.075,-0.0751,-0.0752,-0.0753,0,-0.1038,-0.1039,-0.1044,-0.1044,-0.1025,-0.106,-0.1063,-0.1032,-0.0997,-0.1002,-0.0975,-0.0866,-0.0779,-0.0799,-0.066,-0.0595,-0.0672,-0.0593,-0.0738,-0.0779,-0.0816,-0.0671,-0.0414,-0.0413,-0.0412,-0.0412,0,0,-0.1001,-0.0976,-0.0979,-0.0924,-0.0921,-0.0867,-0.0849,-0.0818,-0.0807,-0.0749,-0.0719,-0.0748,-0.0758,-0.0603,-0.0548,-0.0464,-0.0628,-0.0435,-0.0705,-0.0917,-0.0954,-0.1052,-0.0869,0,0,0,0,0]},{"header":{"parameterUnit":"m.s-1","parameterCategory":2,"la1":30.2991,"la2":30.254,"lo1":-89.0895,"lo2":-89.0444,"dy":0.0017,"dx":0.0017,"nx":28,"ny":28,"refTime":"2023-10-08T09:00:00:Z","depth":"2","parameterNumber":3,"parameterNumberName":"V-component_of_CURRENTS"},"data":[0,0,0,0,0,0,0,0,0,0,0,0,0,0,0,0,0,0,0,0,0,0,0,0,0,0,0,0,0,0,0,0,0,0,0,0,0,0,0,0,0,0,0,0,0,0,0,0,0,0,0,0,0,0,0,0,0,0,-0.0021,-0.002,0,0.0078,0.0079,0.008,0.0116,0.0116,0.0116,0.0116,0.0243,0.0247,0.025,0,0,0,0,0,0,0,0,0,0,0,0,0,-0.0082,-0.0082,-0.0022,-0.002,-0.0018,0.0078,0.0079,0.008,0.0116,0.0116,0.0116,0.0116,0.0242,0.0246,0.025,0,0,0,0,0,0,0,0,0,0,0,0,0,-0.003,-0.0082,-0.0022,0.0014,0.0018,0.0078,0.0079,0.008,0.0116,0.0116,0.0116,0.0116,0.0241,0.0246,0.0251,0.0283,0,0,0.0266,0.0269,0,0,0,0,0,0,0,0,-0.0033,-0.0028,0.0007,0.0011,0.0017,0.0088,0.0105,0.0151,0.0116,0.0075,0.0116,0.0116,0.0196,0.0205,0.0218,0.0288,0.0294,0.0267,0.027,0.0272,0.0274,0,0,0,0,0,0,0,-0.0037,-0.0032,0.0014,0.0009,0.0015,0.0059,0.0065,0.0114,0.0132,0.0078,0.0082,0.0099,0.0199,0.0213,0.0222,0.0296,0.0267,0.0271,0.0274,0.0276,0.0354,0.0353,0,0,0,0,0,0,-0.0047,-0.0036,0.0011,0.0017,-0.0005,0.006,0.0067,0.0062,0.0131,0.0143,0.0099,0.0101,0.0204,0.0216,0.0226,0.0257,0.0272,0.0277,0.028,0.0355,0.0354,0.0352,0,0,0,0,0,0,-0.0049,-0.0045,0.0007,-0.0002,0.0008,0.0061,0.0056,0.0064,0.0075,0.0147,0.0158,0.0101,0.0205,0.0219,0.0253,0.0263,0.0279,0.0284,0.0356,0.0354,0.0353,0.0326,0,0,0,0,0,0,-0.0052,-0.0047,-0.0051,-0.0004,0.0008,0.0034,0.0056,0.0066,0.0088,0.009,0.0153,0.0165,0.0206,0.0244,0.0257,0.027,0.0288,0.0357,0.0355,0.0354,0.0328,0.0324,0.032,0,0,0,0,0,-0.0055,-0.0066,-0.0053,-0.0046,-0.0002,0.0034,0.0043,0.008,0.0087,0.0089,0.0123,0.0163,0.0241,0.0248,0.0264,0.0278,0.0358,0.0356,0.0354,0.033,0.0324,0.032,0,0,0,0,0,0,-0.0092,-0.0061,-0.0046,-0.0047,-0.0011,0.0041,0.0049,0.0074,0.0102,0.0098,0.0159,0.0173,0.0205,0.0235,0.0241,0.0288,0.0303,0.0304,0.028,0.0275,0.0271,0.0252,0.0292,0,0,0,0,0,-0.0102,-0.0106,-0.0062,-0.0061,-0.005,-0.0003,0.0017,0.0039,0.0074,0.0085,0.013,0.0169,0.0209,0.0235,0.027,0.0305,0.0326,0.0318,0.0313,0.031,0.0301,0.035,0.0351,0.0345,0.0345,0.0345,0,0,-0.0112,-0.0097,-0.0096,-0.0068,-0.0042,-0.003,0.0007,0.0025,0.0044,0.0097,0.0123,0.0158,0.0211,0.0244,0.0261,0.0273,0.0316,0.0307,0.0304,0.0297,0.0348,0.0349,0.035,0.0344,0.0344,0.0344,0,0,-0.0139,-0.0128,-0.0141,-0.0119,-0.0085,-0.0054,-0.0053,-0.0009,0.0015,0.0046,0.0085,0.0122,0.018,0.0226,0.0256,0.0249,0.0289,0.0253,0.0231,0.0279,0.0281,0.0283,0.0287,0.029,0.0257,0.0256,0.0256,0,-0.015,-0.0162,-0.0135,-0.014,-0.0124,-0.0072,-0.0076,-0.0038,0.0013,0.0038,0.0043,0.0131,0.0175,0.0236,0.0222,0.0246,0.0256,0.0253,0.0277,0.0279,0.0281,0.0286,0.0289,0.0255,0.0255,0.0255,0.0255,0,-0.0183,-0.019,-0.0196,-0.0188,-0.0169,-0.0163,-0.0112,-0.0085,-0.0053,-0.001,0.0046,0.0104,0.0156,0.0177,0.0197,0.0237,0.0231,0.0265,0.0295,0.0281,0.0286,0.0289,0.0253,0.0253,0.0254,0.0254,0,0,-0.0217,-0.022,-0.0222,-0.0227,-0.0197,-0.0184,-0.0154,-0.0104,-0.0086,-0.0022,0.0016,0.0084,0.0114,0.0146,0.0191,0.023,0.0247,0.0239,0.0242,0.0251,0.0315,0.0332,0.0338,0.0286,0.0287,0.0288,0.0304,0,-0.0248,-0.0276,-0.0264,-0.0276,-0.0283,-0.0234,-0.0211,-0.0159,-0.0112,-0.0063,0.0029,0.0063,0.0107,0.0115,0.0172,0.0235,0.0258,0.0237,0.0319,0.032,0.0347,0.0344,0.0307,0.0321,0.0308,0.0309,0.0309,0,-0.0284,-0.0296,-0.0325,-0.0323,-0.0322,-0.0318,-0.0279,-0.0251,-0.0162,-0.0133,-0.0061,-0.0003,0.0079,0.01,0.0221,0.0202,0.0236,0.0283,0.0286,0.0316,0.0347,0.0336,0.0328,0.0316,0.0315,0.0315,0.0314,0,-0.0323,-0.0338,-0.0364,-0.0363,-0.035,-0.0346,-0.033,-0.027,-0.025,-0.0183,-0.0176,-0.0053,-0.0015,0.0087,0.0188,0.0193,0.0306,0.0338,0.0383,0.0384,0.0375,0.0373,0.039,0.039,0.039,0.039,0.039,0,-0.0361,-0.0379,-0.0385,-0.0398,-0.0419,-0.0395,-0.04,-0.037,-0.0324,-0.0303,-0.0222,-0.018,-0.0025,0.0072,0.0172,0.0296,0.0301,0.0371,0.0398,0.036,0.0357,0.0377,0.0375,0.0391,0.0391,0.039,0.039,0,-0.04,-0.0405,-0.0434,-0.0439,-0.0441,-0.0456,-0.0453,-0.0449,-0.0424,-0.0394,-0.0386,-0.0277,-0.0156,-0.0005,0.015,0.0254,0.0379,0.0405,0.0328,0.0347,0.0419,0.0415,0.0466,0.0467,0.0468,0.0469,0.0469,0,-0.0425,-0.0446,-0.0472,-0.049,-0.0495,-0.051,-0.0515,-0.0496,-0.0487,-0.0438,-0.0417,-0.0326,-0.0226,0.001,0.0189,0.036,0.0374,0.0411,0.043,0.041,0.0431,0.0426,0.0421,0.0388,0.0388,0.0388,0.0388,0,-0.0465,-0.0477,-0.0499,-0.0536,-0.0556,-0.0574,-0.0577,-0.0584,-0.055,-0.0528,-0.0459,-0.0385,-0.0189,0.001,0.0207,0.0313,0.0396,0.0414,0.043,0.0383,0.0341,0.036,0.0357,0.0387,0.0387,0.0387,0.0387,0.0387,-0.0492,-0.0519,-0.0548,-0.058,-0.0604,-0.062,-0.0624,-0.0608,-0.0591,-0.0528,-0.0468,-0.0346,-0.0197,0.0103,0.0246,0.0382,0.0397,0.0442,0.044,0.0439,0.0436,0.0399,0.0452,0.0452,0.0453,0.0453,0.0453,0,-0.0518,-0.0546,-0.0584,-0.0619,-0.0643,-0.0645,-0.0647,-0.0624,-0.0583,-0.0509,-0.0428,-0.0268,-0.0084,0.008,0.0289,0.0412,0.0397,0.0431,0.0388,0.0389,0.0389,0.0382,0.0384,0.0385,0.0385,0.0385,0,0,-0.0533,-0.0573,-0.0593,-0.0637,-0.0659,-0.0667,-0.066,-0.0611,-0.0544,-0.0447,-0.0353,-0.0246,-0.0067,0.0066,0.0203,0.0308,0.032,0.0312,0.0355,0.0289,0.0288,0.0382,0.0371,0,0,0,0,0]}],[{"header":{"parameterUnit":"m.s-1","parameterCategory":2,"la1":30.2991,"la2":30.254,"lo1":-89.0895,"lo2":-89.0444,"dy":0.0017,"dx":0.0017,"nx":28,"ny":28,"refTime":"2023-10-08T09:00:00:Z","depth":"4","parameterNumber":2,"parameterNumberName":"U-component_of_CURRENTS"},"data":[0,0,0,0,0,0,0,0,0,0,0,0,0,0,0,0,0,0,0,0,0,0,0,0,0,0,0,0,0,0,0,0,0,0,0,0,0,0,0,0,0,0,0,0,0,0,0,0,0,0,0,0,0,0,0,0,0,0,-0.0932,-0.0932,0,-0.0822,-0.082,-0.0818,-0.072,-0.072,-0.072,-0.072,-0.0777,-0.0778,-0.078,0,0,0,0,0,0,0,0,0,0,0,0,0,-0.0913,-0.0914,-0.0932,-0.0932,-0.0932,-0.0823,-0.082,-0.0818,-0.072,-0.072,-0.072,-0.072,-0.0776,-0.0778,-0.078,0,0,0,0,0,0,0,0,0,0,0,0,0,-0.0865,-0.0914,-0.0932,-0.0878,-0.0873,-0.0823,-0.082,-0.0817,-0.072,-0.072,-0.072,-0.072,-0.0776,-0.0778,-0.078,-0.0801,0,0,-0.0788,-0.0789,0,0,0,0,0,0,0,0,-0.0868,-0.0864,-0.0886,-0.0882,-0.0876,-0.0794,-0.0835,-0.0824,-0.072,-0.0767,-0.072,-0.072,-0.0806,-0.0805,-0.0767,-0.0803,-0.0806,-0.0788,-0.079,-0.0791,-0.0792,0,0,0,0,0,0,0,-0.0871,-0.0868,-0.0878,-0.0886,-0.088,-0.081,-0.0803,-0.083,-0.0784,-0.0763,-0.0758,-0.0763,-0.0802,-0.0765,-0.0769,-0.0807,-0.0788,-0.079,-0.0792,-0.0793,-0.0884,-0.0885,0,0,0,0,0,0,-0.0915,-0.0872,-0.0882,-0.0876,-0.0883,-0.0812,-0.0803,-0.0812,-0.0779,-0.0776,-0.0763,-0.0759,-0.0761,-0.0766,-0.0771,-0.081,-0.0791,-0.0793,-0.0795,-0.0883,-0.0884,-0.0885,0,0,0,0,0,0,-0.0915,-0.0917,-0.0886,-0.0879,-0.0872,-0.0815,-0.0823,-0.081,-0.0787,-0.078,-0.0777,-0.0757,-0.0761,-0.0767,-0.0803,-0.0812,-0.0794,-0.0797,-0.0882,-0.0883,-0.0885,-0.088,0,0,0,0,0,0,-0.0915,-0.0917,-0.0932,-0.0883,-0.0874,-0.0869,-0.0825,-0.0808,-0.0795,-0.0788,-0.0775,-0.0778,-0.0761,-0.0799,-0.0805,-0.0815,-0.0799,-0.0881,-0.0883,-0.0884,-0.0879,-0.0881,-0.0883,0,0,0,0,0,-0.0914,-0.093,-0.0933,-0.0935,-0.0899,-0.0871,-0.0859,-0.0809,-0.0795,-0.0785,-0.078,-0.0779,-0.0814,-0.0802,-0.0809,-0.082,-0.088,-0.0882,-0.0884,-0.0878,-0.0881,-0.0883,0,0,0,0,0,0,-0.0917,-0.0922,-0.0923,-0.0938,-0.092,-0.0859,-0.0853,-0.0826,-0.0805,-0.0815,-0.0795,-0.0798,-0.0828,-0.0836,-0.0823,-0.0852,-0.0846,-0.085,-0.084,-0.0842,-0.0844,-0.0828,-0.0801,0,0,0,0,0,-0.0935,-0.0952,-0.0941,-0.0952,-0.0956,-0.0912,-0.0896,-0.0873,-0.0853,-0.084,-0.0825,-0.0829,-0.0838,-0.0852,-0.0858,-0.0888,-0.0882,-0.0899,-0.0901,-0.0903,-0.0896,-0.0895,-0.0896,-0.0892,-0.0892,-0.0892,0,0,-0.0939,-0.0946,-0.0954,-0.0956,-0.0939,-0.094,-0.0899,-0.0895,-0.0874,-0.0861,-0.0836,-0.0842,-0.0849,-0.086,-0.0876,-0.0872,-0.0903,-0.0905,-0.0906,-0.0898,-0.0897,-0.0898,-0.0898,-0.0893,-0.0893,-0.0893,0,0,-0.0949,-0.097,-0.0987,-0.0988,-0.0994,-0.0969,-0.0982,-0.0942,-0.0905,-0.0901,-0.0881,-0.0891,-0.09,-0.0886,-0.089,-0.0918,-0.0913,-0.0932,-0.0928,-0.0928,-0.0928,-0.0928,-0.0921,-0.092,-0.0932,-0.0932,-0.0932,0,-0.0955,-0.098,-0.0983,-0.1003,-0.1012,-0.0994,-0.101,-0.0969,-0.0934,-0.091,-0.0906,-0.0893,-0.0904,-0.0906,-0.0904,-0.092,-0.0918,-0.0915,-0.0928,-0.0928,-0.0928,-0.0921,-0.092,-0.0932,-0.0932,-0.0932,-0.0932,0,-0.0972,-0.1002,-0.1016,-0.1042,-0.1047,-0.1062,-0.104,-0.1017,-0.099,-0.0943,-0.093,-0.0924,-0.0913,-0.0921,-0.092,-0.0925,-0.0924,-0.0929,-0.0916,-0.0927,-0.0921,-0.0919,-0.0932,-0.0932,-0.0932,-0.0932,0,0,-0.0958,-0.1018,-0.1024,-0.105,-0.1079,-0.1079,-0.1067,-0.1035,-0.101,-0.0972,-0.0935,-0.0934,-0.0918,-0.0921,-0.0921,-0.0919,-0.0916,-0.0923,-0.0923,-0.0905,-0.0912,-0.0874,-0.0869,-0.0923,-0.0923,-0.0923,-0.0908,0,-0.097,-0.1015,-0.1045,-0.1085,-0.1109,-0.1114,-0.1105,-0.1077,-0.1027,-0.0981,-0.0953,-0.0933,-0.092,-0.0927,-0.0917,-0.092,-0.0913,-0.0919,-0.0914,-0.0914,-0.0868,-0.0867,-0.0922,-0.0907,-0.0906,-0.0906,-0.0906,0,-0.0973,-0.1006,-0.1052,-0.1113,-0.1128,-0.1149,-0.1137,-0.1126,-0.1062,-0.1027,-0.0986,-0.0949,-0.0932,-0.0929,-0.091,-0.0916,-0.0911,-0.0908,-0.0908,-0.087,-0.0873,-0.0895,-0.0904,-0.0904,-0.0904,-0.0905,-0.0905,0,-0.0939,-0.1012,-0.1049,-0.1071,-0.113,-0.1146,-0.1172,-0.1134,-0.1117,-0.1052,-0.1033,-0.0983,-0.0978,-0.0952,-0.0927,-0.0923,-0.0911,-0.0907,-0.0863,-0.086,-0.09,-0.0901,-0.0894,-0.0894,-0.0894,-0.0894,-0.0894,0,-0.0927,-0.0963,-0.1041,-0.106,-0.1103,-0.1156,-0.117,-0.116,-0.1154,-0.113,-0.1066,-0.1034,-0.0986,-0.0955,-0.0931,-0.0888,-0.0912,-0.0853,-0.0851,-0.0901,-0.0901,-0.0899,-0.09,-0.0894,-0.0894,-0.0894,-0.0894,0,-0.0879,-0.0931,-0.0981,-0.106,-0.1087,-0.1118,-0.1195,-0.1183,-0.1195,-0.1164,-0.1153,-0.1084,-0.103,-0.0979,-0.0944,-0.0901,-0.0868,-0.0853,-0.0907,-0.091,-0.0812,-0.0814,-0.0782,-0.078,-0.0779,-0.0778,-0.0777,0,-0.0858,-0.0878,-0.0968,-0.0993,-0.1035,-0.1094,-0.112,-0.1178,-0.117,-0.1179,-0.1155,-0.1107,-0.1043,-0.0945,-0.0916,-0.0851,-0.0844,-0.0825,-0.0806,-0.0798,-0.08,-0.0803,-0.0806,-0.0775,-0.0775,-0.0774,-0.0774,0,-0.0816,-0.0852,-0.0888,-0.0937,-0.098,-0.1025,-0.108,-0.1082,-0.1132,-0.1163,-0.1106,-0.1042,-0.098,-0.0901,-0.0864,-0.0823,-0.083,-0.0811,-0.0813,-0.0795,-0.079,-0.0793,-0.0797,-0.077,-0.077,-0.0771,-0.0771,0,-0.0782,-0.0791,-0.0835,-0.087,-0.092,-0.0934,-0.0978,-0.0995,-0.1019,-0.1053,-0.1037,-0.0984,-0.0979,-0.0889,-0.0857,-0.0805,-0.0779,-0.0751,-0.0755,-0.076,-0.0756,-0.0747,-0.0703,0,0,0,0,0,-0.0744,-0.0739,-0.0765,-0.0796,-0.0839,-0.0866,-0.0933,-0.0977,-0.1041,-0.0982,-0.1015,-0.0949,-0.0869,-0.0845,-0.0777,-0.0829,-0.0777,-0.0748,-0.0747,-0.0745,-0.075,-0.0745,0,0,0,0,0,0,-0.0715,-0.0732,-0.0736,-0.0722,-0.0726,-0.0763,-0.0799,-0.0846,-0.083,-0.0894,-0.0846,-0.09,-0.0821,-0.088,-0.0754,-0.075,-0.0734,-0.0744,-0.0742,-0.0742,-0.0746,-0.0751,-0.0747,0,0,0,0,0]},{"header":{"parameterUnit":"m.s-1","parameterCategory":2,"la1":30.2991,"la2":30.254,"lo1":-89.0895,"lo2":-89.0444,"dy":0.0017,"dx":0.0017,"nx":28,"ny":28,"refTime":"2023-10-08T09:00:00:Z","depth":"4","parameterNumber":3,"parameterNumberName":"V-component_of_CURRENTS"},"data":[0,0,0,0,0,0,0,0,0,0,0,0,0,0,0,0,0,0,0,0,0,0,0,0,0,0,0,0,0,0,0,0,0,0,0,0,0,0,0,0,0,0,0,0,0,0,0,0,0,0,0,0,0,0,0,0,0,0,0.0029,0.003,0,0.012,0.012,0.0121,0.0178,0.0179,0.0179,0.018,0.0192,0.0192,0.0192,0,0,0,0,0,0,0,0,0,0,0,0,0,-0.0025,-0.0025,0.0029,0.003,0.0032,0.0119,0.012,0.0121,0.0178,0.0179,0.0179,0.018,0.0192,0.0192,0.0192,0,0,0,0,0,0,0,0,0,0,0,0,0,0.0022,-0.0025,0.0029,0.0073,0.0078,0.0119,0.012,0.0122,0.0178,0.0179,0.018,0.018,0.0192,0.0192,0.0191,0.0171,0,0,0.019,0.019,0,0,0,0,0,0,0,0,0.0019,0.0023,0.0065,0.007,0.0076,0.0141,0.0106,0.0135,0.0178,0.0136,0.018,0.0181,0.0169,0.0171,0.0182,0.0171,0.0172,0.019,0.019,0.019,0.019,0,0,0,0,0,0,0,0.0016,0.002,0.0062,0.0066,0.0073,0.0113,0.0119,0.0112,0.0142,0.014,0.0145,0.016,0.0171,0.0183,0.0183,0.0172,0.019,0.019,0.019,0.019,0.0211,0.0212,0,0,0,0,0,0,0.0006,0.0017,0.0059,0.0065,0.0053,0.0113,0.012,0.0117,0.0145,0.0151,0.0159,0.0163,0.0183,0.0183,0.0183,0.021,0.019,0.019,0.0189,0.021,0.0211,0.0212,0,0,0,0,0,0,0.0004,0.0008,0.0055,0.0047,0.0056,0.0112,0.0108,0.0118,0.0133,0.0161,0.0165,0.0165,0.0184,0.0184,0.0197,0.0209,0.0189,0.0189,0.0209,0.0211,0.0212,0.0231,0,0,0,0,0,0,0.0002,0.0006,0.0002,0.0045,0.0056,0.0081,0.0108,0.0119,0.0142,0.0147,0.0166,0.0169,0.0184,0.0198,0.0197,0.0208,0.0189,0.0208,0.021,0.0211,0.0229,0.0232,0.0235,0,0,0,0,0,-0.0001,-0.001,0.0,0.0006,0.0046,0.0081,0.0089,0.0132,0.0141,0.0147,0.0172,0.0168,0.0207,0.0198,0.0196,0.0208,0.0208,0.021,0.0211,0.0228,0.0232,0.0235,0,0,0,0,0,0,-0.0031,-0.0004,0.0009,0.0008,0.0043,0.0092,0.01,0.0125,0.0149,0.0146,0.0172,0.0176,0.0194,0.0195,0.0185,0.022,0.0208,0.021,0.0221,0.0225,0.0228,0.0226,0.0188,0,0,0,0,0,-0.0043,-0.0047,-0.0007,-0.0006,0.0004,0.0047,0.0066,0.009,0.012,0.0132,0.0154,0.0175,0.0199,0.0207,0.0221,0.0229,0.0239,0.0238,0.0241,0.0244,0.0242,0.0279,0.0286,0.0218,0.0218,0.0218,0,0,-0.0051,-0.0038,-0.0037,-0.0012,0.0011,0.0026,0.0059,0.0078,0.0103,0.0125,0.0155,0.0178,0.0203,0.023,0.0237,0.0232,0.0268,0.0246,0.0248,0.0245,0.0282,0.0288,0.0294,0.0219,0.0219,0.0219,0,0,-0.0072,-0.0066,-0.0076,-0.0057,-0.0027,0.0005,0.0007,0.005,0.0081,0.0109,0.0144,0.0179,0.0198,0.0241,0.0259,0.0281,0.0282,0.028,0.0295,0.0331,0.0336,0.0342,0.0362,0.0369,0.0284,0.0284,0.0284,0,-0.0082,-0.0092,-0.0069,-0.0073,-0.0058,-0.001,-0.001,0.0031,0.0081,0.0113,0.0116,0.0191,0.0209,0.0269,0.0288,0.0288,0.0301,0.0279,0.0335,0.034,0.0345,0.0364,0.0372,0.0285,0.0285,0.0285,0.0285,0,-0.0107,-0.0114,-0.012,-0.0109,-0.009,-0.0083,-0.0029,0.0007,0.0044,0.0093,0.0155,0.0197,0.0247,0.0264,0.0282,0.0337,0.0331,0.0333,0.0324,0.0353,0.0372,0.0379,0.0287,0.0287,0.0286,0.0286,0,0,-0.0132,-0.0137,-0.0139,-0.0144,-0.0113,-0.0099,-0.0053,0.001,0.0051,0.011,0.0166,0.0231,0.0264,0.0287,0.0323,0.0361,0.0412,0.0362,0.0363,0.0379,0.0482,0.0417,0.0419,0.0423,0.0424,0.0426,0.048,0,-0.0156,-0.018,-0.0169,-0.0175,-0.018,-0.0128,-0.009,-0.0025,0.0044,0.0114,0.0191,0.0243,0.0272,0.0293,0.0344,0.0393,0.0432,0.0396,0.0453,0.0454,0.0392,0.0426,0.043,0.0485,0.0487,0.0488,0.0489,0,-0.0182,-0.0194,-0.0217,-0.0211,-0.0209,-0.02,-0.0128,-0.0089,0.003,0.008,0.0165,0.0229,0.0315,0.0319,0.0428,0.0403,0.0443,0.0478,0.0481,0.0418,0.0404,0.0451,0.0502,0.0501,0.05,0.0499,0.0498,0,-0.021,-0.0226,-0.0247,-0.0246,-0.0227,-0.0217,-0.0197,-0.01,-0.0066,0.0058,0.0092,0.0218,0.0258,0.0345,0.0431,0.0431,0.0532,0.054,0.0523,0.0519,0.0551,0.0545,0.0609,0.0609,0.0609,0.0609,0.0609,0,-0.0235,-0.0253,-0.0267,-0.0277,-0.029,-0.0268,-0.025,-0.0191,-0.012,-0.0083,0.0056,0.0105,0.0263,0.0351,0.0431,0.0494,0.0534,0.0528,0.0532,0.0557,0.0551,0.0556,0.0549,0.0611,0.0611,0.061,0.061,0,-0.026,-0.0269,-0.0297,-0.0302,-0.0308,-0.032,-0.0317,-0.0289,-0.0225,-0.0172,-0.0144,0.0017,0.0128,0.0275,0.0413,0.0465,0.0547,0.0556,0.0565,0.0568,0.0512,0.0506,0.0551,0.055,0.0548,0.0547,0.0546,0,-0.0274,-0.0293,-0.0326,-0.0346,-0.0356,-0.0374,-0.0376,-0.034,-0.0315,-0.0233,-0.0209,-0.0086,0.0029,0.019,0.0333,0.0486,0.0497,0.0542,0.0543,0.0509,0.0509,0.0504,0.05,0.0544,0.0543,0.0543,0.0542,0,-0.0299,-0.0315,-0.0336,-0.0379,-0.0404,-0.0424,-0.0434,-0.0432,-0.0384,-0.0342,-0.0258,-0.014,-0.0018,0.0153,0.027,0.0379,0.0522,0.0527,0.0532,0.0533,0.05,0.05,0.0498,0.0537,0.0538,0.0538,0.0539,0,-0.0317,-0.0338,-0.0369,-0.0402,-0.0437,-0.0455,-0.046,-0.0442,-0.0426,-0.0345,-0.033,-0.0172,-0.0071,0.0093,0.02,0.0305,0.0329,0.0363,0.0377,0.0384,0.0317,0.025,0.0215,0,0,0,0,0,-0.033,-0.0353,-0.0388,-0.0423,-0.0455,-0.047,-0.0481,-0.0475,-0.045,-0.0405,-0.0369,-0.0255,-0.008,0.0017,0.0109,0.0167,0.0345,0.0275,0.0391,0.0509,0.0515,0.0459,0,0,0,0,0,0,-0.034,-0.0375,-0.0388,-0.0428,-0.0453,-0.0482,-0.0488,-0.0471,-0.0438,-0.0402,-0.0299,-0.0255,-0.007,-0.0136,0.0105,0.0138,0.0217,0.0363,0.0364,0.0506,0.0511,0.0516,0.046,0,0,0,0,0]}]]